This is the latest recevied weather packets stored in our database for station/object PY2UEP-1. If no packets are shown the sender has not sent any weather packets the latest 10 day(s).
| Time | Temp. | Humidity | Pressure | Rain* | Wind** | Luminosity | Snow |
|---|---|---|---|---|---|---|---|
| 1778256293 | 30° C | 37% | 1013.4 hPa | 0 mm | - | - | - |
| 1778255998 | 29.44° C | 38% | 1013.4 hPa | 0 mm | - | - | - |
| 1778255692 | 28.89° C | 38% | 1013.3 hPa | 0 mm | - | - | - |
| 1778255392 | 29.44° C | 37% | 1013.2 hPa | 0 mm | - | - | - |
| 1778255093 | 29.44° C | 39% | 1013.6 hPa | 0 mm | - | - | - |
| 1778254792 | 30° C | 38% | 1013.5 hPa | 0 mm | - | - | - |
| 1778254494 | 30° C | 39% | 1013.5 hPa | 0 mm | - | - | - |
| 1778254193 | 29.44° C | 40% | 1013.5 hPa | 0 mm | - | - | - |
| 1778253892 | 30° C | 41% | 1013.7 hPa | 0 mm | - | - | - |
| 1778253593 | 30° C | 40% | 1013.8 hPa | 0 mm | - | - | - |
| 1778253293 | 29.44° C | 42% | 1013.8 hPa | 0 mm | - | - | - |
| 1778252992 | 30° C | 42% | 1013.9 hPa | 0 mm | - | - | - |
| 1778252692 | 30° C | 42% | 1013.9 hPa | 0 mm | - | - | - |
| 1778252393 | 29.44° C | 44% | 1014.2 hPa | 0 mm | - | - | - |
| 1778252092 | 29.44° C | 45% | 1014.3 hPa | 0 mm | - | - | - |
| 1778251792 | 28.89° C | 46% | 1014.3 hPa | 0 mm | - | - | - |
| 1778251492 | 28.89° C | 44% | 1014.6 hPa | 0 mm | - | - | - |
| 1778251194 | 28.89° C | 45% | 1014.3 hPa | 0 mm | - | - | - |
| 1778250892 | 28.89° C | 47% | 1014.3 hPa | 0 mm | - | - | - |
| 1778250592 | 28.33° C | 49% | 1014.7 hPa | 0 mm | - | - | - |
| 1778250294 | 28.33° C | 50% | 1014.7 hPa | 0 mm | - | - | - |
| 1778249992 | 28.33° C | 52% | 1014.7 hPa | 0 mm | - | - | - |
| 1778249692 | 28.33° C | 51% | 1014.8 hPa | 0 mm | - | - | - |
| 1778249393 | 28.33° C | 51% | 1014.7 hPa | 0 mm | - | - | - |
| 1778249092 | 28.33° C | 50% | 1014.9 hPa | 0 mm | - | - | - |
* Rain since midnight (hover to see other rain measurements)
** Current wind speed in m/s (hover to see current wind gust speed)